FW0515 Weather Reports


time (UTC)temp
F
wind
direction
speed
knots
gust
knots
rain 1hr
in
rain 24hr
in
rain mn
in
humidity
%
barometer
mb
20260504081552 43 359 0.0 0.0 0.00 0.00 0.00 83 1014.4
20260504044537 42 359 0.0 0.0 0.00 0.00 0.00 74 1014.3
20260504043046 42 359 0.0 0.0 0.00 0.00 0.00 76 1014.2
20260504041535 42 359 0.0 0.0 0.00 0.00 0.00 74 1014.0
20260504040030 42 359 0.0 0.0 0.00 0.00 0.00 73 1013.9
20260504034530 42 359 0.0 0.0 0.00 0.00 0.00 73 1013.8
20260504033029 43 359 0.0 0.0 0.00 0.00 0.00 69 1013.8
20260504031530 43 359 0.0 0.0 0.00 0.00 0.00 72 1013.7
20260504030035 44 359 0.0 0.0 0.00 0.00 0.00 68 1013.6
20260504024529 44 359 0.0 0.0 0.00 0.00 0.00 67 1013.7
20260504023028 45 359 0.0 0.0 0.00 0.00 0.00 65 1013.7
20260504021532 45 359 0.0 0.0 0.00 0.00 0.00 65 1013.7
20260504020035 46 359 0.0 0.0 0.00 0.00 0.00 64 1013.7
20260504014527 47 359 0.0 0.0 0.00 0.00 0.00 61 1013.6
20260504013034 47 359 0.0 0.0 0.00 0.00 0.00 61 1013.5
20260504011526 48 359 0.0 0.0 0.00 0.00 0.00 61 1013.3
20260504010025 49 359 0.0 0.0 0.00 0.00 0.00 59 1013.1
20260504004538 50 359 0.0 0.0 0.00 0.00 0.00 57 1013.0
20260504003024 51 359 0.0 0.0 0.00 0.00 0.00 56 1012.8
20260504001532 52 359 0.0 0.0 0.00 0.00 0.00 55 1012.5
20260504000024 53 359 0.0 0.0 0.00 0.00 0.00 53 1012.5
20260503234527 53 359 0.0 0.0 0.00 0.00 0.00 52 1012.4
20260503233023 54 359 0.0 0.0 0.00 0.00 0.00 51 1012.3
20260503231523 55 359 0.0 0.0 0.00 0.00 0.00 50 1012.2
20260503230027 55 359 0.0 0.0 0.00 0.00 0.00 50 1012.1
20260503224522 55 359 0.0 0.0 0.00 0.00 0.00 48 1012.1
20260503223024 56 359 0.0 0.0 0.00 0.00 0.00 47 1012.1
20260503221522 57 359 0.0 0.0 0.00 0.00 0.00 46 1012.2
20260503220030 57 359 0.0 0.0 0.00 0.00 0.00 44 1012.2
20260503214529 58 75 0.0 0.9 0.00 0.00 0.00 41 1012.2
20260503213030 58 106 0.0 0.0 0.00 0.00 0.00 42 1012.0
20260503211520 59 106 0.0 0.9 0.00 0.00 0.00 40 1011.9
20260503210020 60 66 0.0 0.0 0.00 0.00 0.00 39 1012.1
20260503204526 62 206 0.0 0.9 0.00 0.00 0.00 35 1012.0
20260503203018 63 106 0.0 0.0 0.00 0.00 0.00 36 1012.2
20260503201518 64 66 0.0 0.9 0.00 0.00 0.00 33 1012.3
20260503200016 63 75 0.0 0.0 0.00 0.00 0.00 36 1012.5
20260503194515 63 183 0.0 0.0 0.00 0.00 0.00 36 1012.5
20260503193016 63 75 0.0 0.9 0.00 0.00 0.00 36 1012.7
20260503191515 64 108 0.0 0.9 0.00 0.00 0.00 36 1012.6
20260503190016 63 65 0.0 0.0 0.00 0.00 0.00 35 1012.8
20260503184513 63 156 0.0 0.0 0.00 0.00 0.00 38 1012.9
20260503183010 63 139 0.0 2.6 0.00 0.00 0.00 36 1013.0
20260503181523 61 175 0.0 0.9 0.00 0.00 0.00 39 1013.0
20260503180021 62 254 0.0 0.9 0.00 0.00 0.00 37 1013.2
20260503174507 62 143 0.0 0.9 0.00 0.00 0.00 37 1013.1
20260503173004 60 99 0.0 0.9 0.00 0.00 0.00 39 1013.4
20260503171502 59 217 0.0 0.0 0.00 0.00 0.00 38 1013.5